Flag for Slovakia Weather past 2 weeks in Prešov, Slovakia

Now
54 °F

Sunny.


Feels Like: 51 °F
Forecast: 50 / 74 °F
Wind: 8 mph from North

Location: Kosice - Barca

Current Time: Aug 29, 2014 at 7:51:58 AM

Latest Report: Aug 29, 2014 at 7:30 AM


Visibility: 10 mi

Pressure: 30.15 "Hg

Humidity: 82%

Dew point: 48 °F

Location of PrešovLocation

Historic Weather in Prešov — Graph

°F

Prešov temperature yesterday

Maximum temperature yesterday: 72 °F (at 4:30 PM)
Minimum temperature yesterday: 45 °F (at 4:30 AM)
Average temperature yesterday: 57 °F

Past Weeks' High & Low Weather Summary

 TemperatureHumidityPressure
High77 °F (Aug 19, 1:30 PM)100% (Aug 16, 3:30 AM)30.15 "Hg (Aug 16, 3:30 AM)
Low45 °F (Aug 22, 5:30 AM)31% (Aug 22, 1:30 PM)29.74 "Hg (Aug 27, 4:00 AM)
Average61 °F78%29.95 "Hg
* Reported Aug 14 7:00 AM — Aug 29 7:00 AM, Prešov, Weather by CustomWeather, © 2014

Note: Actual official high and low records may vary slightly from our data, if they occured in-between our weather recording intervals... More about our weather records

Advertising

Prešov weather history for previous 24 hours

 ConditionsComfort  
Time TempWeatherWind HumidityBarometerVisibility
7:00 AM
Aug 29
52 °FSunny.3 mph88%30.15 "Hg10 mi
6:30 AM50 °FClear.3 mph94%30.15 "Hg10 mi
6:00 AM50 °FClear.7 mph88%30.12 "Hg10 mi
5:30 AM50 °FClear.2 mph94%30.12 "Hg10 mi
5:00 AM50 °FClear.5 mph94%30.12 "Hg10 mi
4:30 AM50 °FClear.2 mph94%30.12 "Hg10 mi
4:00 AM50 °FClear.2 mph94%30.12 "Hg10 mi
3:30 AM50 °FClear.3 mph94%30.12 "Hg10 mi
3:00 AM50 °FClear.5 mph94%30.12 "Hg10 mi
2:30 AM52 °FClear.3 mph88%30.12 "Hg10 mi
2:00 AM52 °FClear.2 mph88%30.12 "Hg10 mi
1:30 AM52 °FClear.1 mph94%30.12 "Hg10 mi
1:00 AM54 °FClear.3 mph88%30.12 "Hg10 mi
12:30 AM54 °FClear.3 mph88%30.12 "Hg10 mi
12:00 AM55 °FClear.5 mph88%30.12 "Hg10 mi
11:30 PM
Aug 28
57 °FClear.6 mph82%30.12 "Hg10 mi
11:00 PM57 °FClear.5 mph82%30.12 "Hg10 mi
10:30 PM57 °FClear.6 mph82%30.12 "Hg10 mi
10:00 PM57 °FClear.1 mph82%30.12 "Hg10 mi
9:30 PM57 °FClear.5 mph82%30.09 "Hg10 mi
9:00 PM57 °FClear.3 mph82%30.09 "Hg10 mi
8:30 PM57 °FClear.6 mph88%30.09 "Hg10 mi
8:00 PM57 °FSunny.7 mph88%30.09 "Hg10 mi
7:30 PM61 °FSunny.2 mph72%30.09 "Hg10 mi
7:00 PM63 °FSunny.3 mph68%30.09 "Hg10 mi
6:30 PM64 °FPassing clouds.5 mph64%30.09 "HgN/A
6:00 PM66 °FSunny.3 mph52%30.07 "Hg10 mi
5:30 PM68 °FSunny.7 mph46%30.07 "Hg10 mi
5:00 PM70 °FSunny.7 mph40%30.07 "Hg10 mi
4:30 PM72 °FPassing clouds.7 mph44%30.07 "HgN/A
4:00 PM68 °FPassing clouds.6 mph49%30.07 "HgN/A
3:30 PM68 °FPassing clouds.8 mph43%30.07 "HgN/A
3:00 PM68 °FScattered clouds.9 mph43%30.09 "HgN/A
2:30 PM68 °FPartly sunny.9 mph46%30.07 "HgN/A
1:00 PM64 °FPartly sunny.5 mph64%30.09 "HgN/A
12:30 PM66 °FPartly sunny.3 mph52%30.09 "HgN/A
12:00 PM66 °FScattered clouds.6 mph56%30.09 "HgN/A
11:30 AM66 °FPassing clouds.3 mph60%30.09 "HgN/A
11:00 AM64 °FPassing clouds.5 mph60%30.09 "HgN/A
10:30 AM63 °FPassing clouds.3 mph73%30.09 "HgN/A
10:00 AM61 °FPassing clouds.5 mph72%30.09 "HgN/A
9:30 AM59 °FPassing clouds.5 mph77%30.09 "HgN/A
9:00 AM57 °FPassing clouds.3 mph82%30.07 "HgN/A
8:30 AM54 °FSunny.1 mph88%30.07 "Hg10 mi
8:00 AM50 °FFog.2 mph100%30.07 "Hg1 mi
7:30 AM48 °FFog.1 mph100%30.07 "Hg1 mi
7:00 AM46 °FFog.3 mph93%30.04 "Hg0 mi
Weather by CustomWeather, © 2014

See weather overviewHow to use our weather pages